Location: Unspecified
(49.9820°N, 20.4363°E)
Time: 18:13:53
(UTC+02:00)

A-11 Canister half - Pass Details

Date: 22 May 2026
Orbit: 1515 x 1685 km, 47.2° (Epoch: 6 June)

Event Time Altitude Azimuth Distance (km) Brightness Sun altitude
Rises 01:18:38 0° 283° (WNW) 4,704 11.6 -19.0°
Reaches altitude 10° 01:21:45 10° 279° (W) 3,705 11.0 -18.9°
Maximum altitude 01:30:46 57° 205° (SSW) 1,739 8.9 -18.6°
Drops below altitude 10° 01:39:42 10° 129° (SE) 3,676 10.8 -18.2°
Sets 01:42:47 0° 126° (SE) 4,666 11.3 -18.1°
